Grosse Ile, MI

4:37 PM EDT on May 25, 2017 (GMT -0400)
Grosse Ile Municipal

Weather History for KONZ - December, 2012

Change the Weather History Date:

Thursday, December 6, 2012

  Actual Average (KDTW) Record (KDTW)
Temperature  
Mean Temperature 34 °F -  
Max Temperature 39 °F 39 °F 69 °F (1998)
Min Temperature 28 °F 25 °F 7 °F (1885)
Degree Days  
Heating Degree Days 32    
Moisture  
Dew Point 28 °F    
Average Humidity 76    
Maximum Humidity 87    
Minimum Humidity 69    
Precipitation  
Precipitation 0.00 in - - ()
Sea Level Pressure  
Sea Level Pressure 30.15 in    
Wind  
Wind Speed 7 mph (SE)    
Max Wind Speed 15 mph    
Max Gust Speed 20 mph    
Visibility 10 miles    
Events      
Averages and records for this station are not official NWS values.
T = Trace of Precipitation, MM = Missing Value Source: NWS Daily Summary

Daily Weather History Graph

Daily Weather History Graph

Search for Another Location

Airport or City:

Trip Planner

Search our weather history database for the weather conditions in past years. The results will help you decide how hot, cold, wet, or windy it might be!

Date:

Astronomy

Dec. 06, 2012 Rise Set
Actual Time 7:46 AM EST 5:00 PM EST
Civil Twilight 7:15 AM EST 5:32 PM EST
Nautical Twilight 6:40 AM EST 6:07 PM EST
Astronomical Twilight 6:06 AM EST 6:41 PM EST
Moon No Moon Rise 12:33 PM EST (12/6)
Length of Visible Light 10h 16m
Length of Day
9h 13m
Waning Gibbous, 49% of the Moon is Illuminated
Dec 6
Waning Gibbous
Dec 13
New
Dec 20
First Quarter
Dec 28
Full
Jan 4
Last Quarter

Hourly Weather History & Observations

Time (EST) Temp. Windchill Dew Point Humidity Pressure Visibility Wind Dir Wind Speed Gust Speed Precip Events Conditions
12:14 AM 30.2 °F 23.4 °F 21.2 °F 69% 30.35 in 10.0 mi East 6.9 mph - N/A   Scattered Clouds
12:34 AM 30.2 °F 24.3 °F 21.2 °F 69% 30.35 in 10.0 mi East 5.8 mph - N/A   Mostly Cloudy
12:54 AM 30.2 °F 24.3 °F 21.2 °F 69% 30.34 in 10.0 mi East 5.8 mph - N/A   Mostly Cloudy
1:15 AM 30.2 °F 24.3 °F 21.2 °F 69% 30.33 in 10.0 mi East 5.8 mph - N/A   Scattered Clouds
1:34 AM 30.2 °F 23.4 °F 21.2 °F 69% 30.33 in 10.0 mi East 6.9 mph - N/A   Clear
1:54 AM 30.2 °F 24.3 °F 21.2 °F 69% 30.32 in 10.0 mi East 5.8 mph - N/A   Clear
2:15 AM 30.2 °F 23.4 °F 23.0 °F 75% 30.32 in 10.0 mi East 6.9 mph - N/A   Clear
2:34 AM 28.4 °F 22.2 °F 23.0 °F 80% 30.32 in 10.0 mi East 5.8 mph - N/A   Clear
2:54 AM 28.4 °F 20.4 °F 23.0 °F 80% 30.31 in 10.0 mi East 8.1 mph - N/A   Clear
3:14 AM 30.2 °F 25.4 °F 23.0 °F 75% 30.31 in 10.0 mi East 4.6 mph - N/A   Mostly Cloudy
3:34 AM 30.2 °F 24.3 °F 24.8 °F 80% 30.31 in 10.0 mi East 5.8 mph - N/A   Overcast
3:55 AM 30.2 °F 23.4 °F 24.8 °F 80% 30.30 in 10.0 mi East 6.9 mph - N/A   Overcast
4:14 AM 30.2 °F 24.3 °F 23.0 °F 75% 30.29 in 10.0 mi East 5.8 mph - N/A   Mostly Cloudy
4:34 AM 30.2 °F 26.7 °F 24.8 °F 80% 30.29 in 10.0 mi ENE 3.5 mph - N/A   Mostly Cloudy
4:54 AM 30.2 °F 25.4 °F 24.8 °F 80% 30.29 in 10.0 mi ENE 4.6 mph - N/A   Overcast
5:14 AM 30.2 °F 26.7 °F 24.8 °F 80% 30.29 in 10.0 mi East 3.5 mph - N/A   Overcast
5:34 AM 30.2 °F 24.3 °F 24.8 °F 80% 30.27 in 10.0 mi East 5.8 mph - N/A   Mostly Cloudy
5:54 AM 30.2 °F 24.3 °F 24.8 °F 80% 30.26 in 10.0 mi East 5.8 mph - N/A   Scattered Clouds
6:14 AM 30.2 °F 25.4 °F 24.8 °F 80% 30.26 in 10.0 mi East 4.6 mph - N/A   Clear
6:34 AM 30.2 °F 25.4 °F 24.8 °F 80% 30.26 in 10.0 mi ENE 4.6 mph - N/A   Clear
6:54 AM 28.4 °F 24.6 °F 24.8 °F 86% 30.26 in 10.0 mi East 3.5 mph - N/A   Clear
7:14 AM 30.2 °F - 24.8 °F 80% 30.26 in 10.0 mi Calm Calm - N/A   Scattered Clouds
7:34 AM 28.4 °F 24.6 °F 24.8 °F 86% 30.25 in 10.0 mi East 3.5 mph - N/A   Mostly Cloudy
7:54 AM 30.2 °F 25.4 °F 26.6 °F 86% 30.25 in 10.0 mi East 4.6 mph - N/A   Mostly Cloudy
8:14 AM 30.2 °F 26.7 °F 26.6 °F 86% 30.25 in 10.0 mi East 3.5 mph - N/A   Overcast
8:34 AM 33.8 °F 29.6 °F 28.4 °F 81% 30.24 in 10.0 mi SE 4.6 mph - N/A   Overcast
8:54 AM 35.6 °F 26.2 °F 28.4 °F 75% 30.22 in 10.0 mi SSE 15.0 mph - N/A   Mostly Cloudy
9:15 AM 35.6 °F 26.2 °F 28.4 °F 75% 30.21 in 10.0 mi SSE 15.0 mph 18.4 mph N/A   Mostly Cloudy
9:34 AM 35.6 °F 26.6 °F 28.4 °F 75% 30.20 in 10.0 mi SSE 13.8 mph 19.6 mph N/A   Scattered Clouds
9:54 AM 35.6 °F 26.2 °F 28.4 °F 75% 30.19 in 10.0 mi SSE 15.0 mph 19.6 mph N/A   Clear
10:15 AM 37.4 °F 28.9 °F 28.4 °F 70% 30.20 in 10.0 mi SSE 13.8 mph 18.4 mph N/A   Clear
10:34 AM 37.4 °F 29.3 °F 28.4 °F 70% 30.19 in 10.0 mi South 12.7 mph - N/A   Scattered Clouds
10:54 AM 37.4 °F 29.3 °F 28.4 °F 70% 30.19 in 10.0 mi SSE 12.7 mph - N/A   Scattered Clouds
11:14 AM 37.4 °F 30.3 °F 28.4 °F 70% 30.19 in 10.0 mi SSE 10.4 mph - N/A   Clear
11:34 AM 37.4 °F 30.3 °F 28.4 °F 70% 30.18 in 10.0 mi South 10.4 mph - N/A   Scattered Clouds
11:55 AM 37.4 °F 30.3 °F 28.4 °F 70% 30.16 in 10.0 mi SSE 10.4 mph - N/A   Scattered Clouds
12:14 PM 37.4 °F 30.3 °F 28.4 °F 70% 30.15 in 10.0 mi South 10.4 mph - N/A   Clear
12:34 PM 37.4 °F 31.4 °F 28.4 °F 70% 30.14 in 10.0 mi South 8.1 mph - N/A   Clear
12:54 PM 37.4 °F 31.4 °F 28.4 °F 70% 30.12 in 10.0 mi South 8.1 mph - N/A   Clear
1:14 PM 37.4 °F 32.1 °F 28.4 °F 70% 30.12 in 10.0 mi South 6.9 mph - N/A   Clear
1:34 PM 37.4 °F 32.1 °F 28.4 °F 70% 30.10 in 10.0 mi South 6.9 mph - N/A   Clear
1:54 PM 37.4 °F 32.1 °F 28.4 °F 70% 30.09 in 10.0 mi SSE 6.9 mph - N/A   Clear
2:14 PM 37.4 °F 32.1 °F 28.4 °F 70% 30.08 in 10.0 mi South 6.9 mph - N/A   Clear
2:35 PM 37.4 °F 32.1 °F 28.4 °F 70% 30.08 in 10.0 mi South 6.9 mph - N/A   Clear
2:54 PM 37.4 °F 32.8 °F 28.4 °F 70% 30.07 in 10.0 mi South 5.8 mph - N/A   Clear
3:14 PM 37.4 °F 31.4 °F 28.4 °F 70% 30.07 in 10.0 mi South 8.1 mph - N/A   Clear
3:35 PM 37.4 °F 32.1 °F 28.4 °F 70% 30.06 in 10.0 mi South 6.9 mph - N/A   Clear
3:54 PM 37.4 °F 32.1 °F 28.4 °F 70% 30.06 in 10.0 mi South 6.9 mph - N/A   Clear
4:14 PM 37.4 °F 32.1 °F 28.4 °F 70% 30.05 in 10.0 mi South 6.9 mph - N/A   Clear
4:34 PM 35.6 °F 29.2 °F 28.4 °F 75% 30.05 in 10.0 mi SSE 8.1 mph - N/A   Clear
4:54 PM 35.6 °F 29.9 °F 28.4 °F 75% 30.05 in 10.0 mi South 6.9 mph - N/A   Clear
5:14 PM 37.4 °F 32.8 °F 30.2 °F 75% 30.05 in 10.0 mi South 5.8 mph - N/A   Clear
5:34 PM 37.4 °F 32.1 °F 30.2 °F 75% 30.04 in 10.0 mi South 6.9 mph - N/A   Clear
5:54 PM 37.4 °F 32.1 °F 30.2 °F 75% 30.03 in 10.0 mi SSE 6.9 mph - N/A   Clear
6:14 PM 37.4 °F 31.4 °F 30.2 °F 75% 30.03 in 10.0 mi SSE 8.1 mph - N/A   Clear
6:34 PM 37.4 °F 30.8 °F 30.2 °F 75% 30.03 in 10.0 mi SSE 9.2 mph - N/A   Clear
6:54 PM 37.4 °F 32.1 °F 30.2 °F 75% 30.03 in 10.0 mi SSE 6.9 mph - N/A   Clear
7:14 PM 37.4 °F 32.1 °F 32.0 °F 81% 30.03 in 10.0 mi SSE 6.9 mph - N/A   Clear
7:34 PM 37.4 °F 31.4 °F 32.0 °F 81% 30.03 in 10.0 mi SSE 8.1 mph - N/A   Clear
7:55 PM 37.4 °F 31.4 °F 32.0 °F 81% 30.02 in 10.0 mi SSE 8.1 mph - N/A   Clear
8:14 PM 37.4 °F 30.8 °F 32.0 °F 81% 30.02 in 10.0 mi SSE 9.2 mph - N/A   Clear
8:34 PM 39.2 °F 33.0 °F 32.0 °F 75% 30.00 in 10.0 mi SSE 9.2 mph - N/A   Clear
8:54 PM 39.2 °F 34.2 °F 33.8 °F 81% 30.00 in 10.0 mi SSE 6.9 mph - N/A   Clear
9:35 PM 39.2 °F 32.5 °F 33.8 °F 81% 29.99 in 10.0 mi SSE 10.4 mph - N/A   Clear
9:54 PM 39.2 °F 34.2 °F 33.8 °F 81% 29.98 in 10.0 mi SSE 6.9 mph - N/A   Clear
10:14 PM 39.2 °F 33.0 °F 33.8 °F 81% 29.97 in 10.0 mi SSE 9.2 mph - N/A   Clear
10:35 PM 39.2 °F 33.0 °F 33.8 °F 81% 29.97 in 10.0 mi SSE 9.2 mph - N/A   Clear
10:54 PM 39.2 °F 33.6 °F 35.6 °F 87% 29.98 in 10.0 mi South 8.1 mph - N/A   Clear
11:14 PM 39.2 °F 34.2 °F 35.6 °F 87% 29.96 in 10.0 mi SSE 6.9 mph - N/A   Clear
11:34 PM 39.2 °F 35.0 °F 35.6 °F 87% 29.97 in 10.0 mi South 5.8 mph - N/A   Clear
11:55 PM 39.2 °F 34.2 °F 35.6 °F 87% 29.97 in 10.0 mi SSW 6.9 mph - N/A   Clear